Location: Newark
(40.9833°N, 0.0333°W)
Time: 22:23:19
(UTC+00:00)

Transit 4A - Pass Details

Date: 03 November 2020
Orbit: 862 x 982 km, 66.8° (Epoch: 29 November)

Event Time Altitude Azimuth Distance (km) Brightness Sun altitude
Rises 16:13:03 0° 278° (W) 3,642 12.0 6.1°
Reaches altitude 10° 16:17:47 10° 310° (NW) 2,721 10.7 5.3°
Maximum altitude 16:19:53 12° 330° (NNW) 2,611 10.4 5.0°
Drops below altitude 10° 16:22:01 10° 349° (N) 2,737 10.2 4.6°
Sets 16:26:51 0° 21° (NNE) 3,694 10.6 3.8°
